Weather observations for the past three days for
Virginia Beach, Oceana, Naval Air Station
Metric (Imperial)
Date Time (edt) Wind (kph) Vis. (km) Weather Sky Cond. Temperature (ºC) Relative Humidity Wind Chill (°C) Heat Index (°C) Pressure Precipitation (cm)
Air Dwpt 6 hour altimeter (cm) sea level (mb) 1 hr 3 hr 6 hr
Max. Min.
21 10:56 N 7 16.09 Partly Cloudy FEW015 SCT250 21.7 16.1 71% 76.35 1018.1
21 09:56 Vrbl 7 16.09 Mostly Cloudy BKN007 19.4 16.1 81% 76.35 1018.1
21 08:56 NW 7 8.05 Fog/Mist OVC004 16.7 15.6 93% 76.35 1018.2
21 07:51 Vrbl 6 1.61 Fog/Mist OVC002 15.6 15 15.6 13.3 96% 76.3 1017.6
21 06:56 N 7 1.21 Fog/Mist OVC002 14.4 14.4 100% 76.28 1017.1
21 05:56 N 7 1.21 Fog/Mist VV003 13.9 13.9 100% 76.25 1016.9
21 04:56 N 6 2.82 Fog/Mist OVC003 13.9 13.3 96% 76.23 1016.4
21 03:56 Calm 0.80 Fog VV002 13.9 13.9 100% 76.17 1015.9
21 02:56 Calm 1.21 Fog/Mist VV003 13.9 13.3 96% 76.17 1015.8
21 01:56 NE 7 2.82 Fog/Mist OVC002 13.9 13.3 15 12.8 96% 76.2 1016.1
21 00:56 NE 11 16.09 Overcast OVC003 13.9 13.3 96% 76.25 1016.7
20 23:56 Calm 16.09 Overcast OVC005 13.9 12.8 93% 76.28 1017.0
20 22:56 Calm 16.09 Mostly Cloudy BKN007 13.3 12.2 93% 76.3 1017.6
20 21:56 Calm 16.09 Partly Cloudy SCT006 13.9 12.2 90% 76.28 1017.3
20 20:56 E 9 16.09 Overcast OVC007 14.4 12.8 90% 76.28 1017.0
20 19:56 E 13 16.09 Overcast OVC006 15 13.3 19.4 15 90% 76.25 1016.6
20 18:56 E 13 16.09 Overcast OVC008 15.6 13.3 86% 76.23 1016.6
20 17:56 E 13 16.09 Overcast OVC010 16.1 13.3 84% 76.28 1017.0
20 16:56 E 19 16.09 Mostly Cloudy BKN010 16.1 13.3 84% 76.28 1017.3
20 15:56 NE 20 16.09 Mostly Cloudy BKN010 17.2 13.9 81% 76.28 1017.1
20 14:56 NE 19 16.09 Partly Cloudy SCT015 SCT030 18.3 13.9 76% 76.25 1016.8
20 13:56 NE 22 16.09 Partly Cloudy FEW012 SCT025 18.9 13.3 18.9 15 70% 76.28 1017.0
20 12:56 NE 22 16.09 Mostly Cloudy BKN012 18.3 13.9 76% 76.33 1017.7
20 11:56 NE 17 16.09 Mostly Cloudy BKN010 18.3 14.4 78% 76.33 1017.8
20 10:56 N 22 16.09 Overcast OVC009 16.7 13.9 84% 76.35 1018.0
20 09:56 N 22 G 35 16.09 Overcast OVC008 16.1 13.3 84% 76.38 1018.3
20 08:56 N 26 16.09 Overcast OVC008 15.6 13.3 86% 76.3 1017.6
20 07:56 N 24 16.09 Overcast OVC007 15 13.3 15 13.9 90% 76.23 1016.5
20 06:56 NE 15 16.09 Overcast OVC006 14.4 13.3 93% 76.2 1016.1
20 05:56 NE 20 16.09 Overcast OVC006 14.4 13.3 93% 76.17 1015.8
20 04:56 NE 15 16.09 Overcast OVC005 13.9 13.3 96% 76.15 1015.6
20 03:56 NE 19 16.09 Overcast OVC006 14.4 12.8 90% 76.15 1015.4
20 02:56 NE 19 G 30 16.09 Mostly Cloudy BKN011 14.4 13.3 93% 76.15 1015.5
20 01:56 NE 15 16.09 Partly Cloudy SCT030 14.4 12.8 15.6 14.4 90% 76.17 1015.7
20 00:56 NE 15 16.09 Overcast OVC028 15 13.3 90% 76.2 1016.1
19 23:56 E 9 16.09 Overcast OVC026 15.6 13.3 86% 76.2 1016.1
19 22:56 NE 11 16.09 Overcast OVC027 15.6 13.3 86% 76.23 1016.3
19 21:56 E 7 16.09 Fair CLR 14.4 12.8 90% 76.2 1016.0
19 20:56 NE 15 16.09 Mostly Cloudy BKN016 15.6 12.8 84% 76.17 1015.7
19 19:56 E 19 16.09 Overcast OVC017 15.6 13.3 18.9 15.6 86% 76.15 1015.3
19 18:56 E 15 16.09 Overcast BKN011 OVC016 16.1 13.3 84% 76.15 1015.3
19 17:56 E 15 16.09 Overcast OVC012 16.7 13.9 84% 76.12 1015.2
19 16:56 NE 19 16.09 Overcast OVC011 17.2 13.9 81% 76.1 1014.9
19 15:56 NE 19 16.09 Overcast OVC010 17.2 14.4 84% 76.1 1014.7
19 14:56 NE 24 G 31 16.09 Overcast OVC013 17.8 14.4 81% 76.12 1015.0
19 13:56 NE 24 16.09 Overcast OVC013 18.3 14.4 18.3 15.6 78% 76.12 1015.2
19 12:56 NE 17 16.09 Overcast OVC009 17.8 14.4 81% 76.15 1015.5
19 11:56 NE 20 16.09 Overcast OVC011 17.2 14.4 84% 76.2 1016.0
19 10:56 NE 20 16.09 Overcast OVC012 17.8 14.4 81% 76.17 1015.9
19 09:56 NE 28 G 39 16.09 Overcast OVC010 16.1 13.9 87% 76.17 1015.8
19 08:56 NE 20 G 35 16.09 Overcast OVC009 15.6 13.9 90% 76.15 1015.4
19 07:56 NE 24 16.09 Overcast OVC010 15.6 13.9 15.6 14.4 90% 76.1 1014.9
19 06:56 NE 22 16.09 Overcast OVC010 15 13.3 90% 76.07 1014.4
19 05:56 NE 20 16.09 Overcast OVC010 15 13.3 90% 76.02 1013.7
19 04:56 NE 20 16.09 Overcast OVC011 15 13.3 90% 75.97 1013.2
19 03:56 NE 17 16.09 Mostly Cloudy BKN010 BKN050 15 13.3 90% 75.95 1012.7
19 02:56 NE 22 16.09 Overcast OVC011 14.4 12.8 90% 75.95 1012.7
19 01:56 NE 19 16.09 Overcast OVC009 14.4 13.3 15 14.4 93% 75.97 1013.0
19 00:56 NE 17 16.09 Overcast FEW009 OVC034 14.4 13.3 93% 75.97 1013.1
18 23:56 NE 15 16.09 Overcast SCT011 OVC032 14.4 13.3 93% 76 1013.5
18 22:56 NE 15 16.09 Overcast FEW010 OVC031 14.4 13.3 93% 76.02 1013.8
18 21:57 E 13 0.00 NULL NULL 14.4 12.8 90% 76.02 1013.8
18 20:59 E 19 16.09 Overcast FEW009 OVC014 15 13.3 90% 76.05 1014.0
18 19:56 NE 17 16.09 Overcast FEW008 OVC019 15 13.3 16.1 15 90% 75.97 1013.2
18 18:56 NE 24 8.05 Light Rain Fog/Mist OVC005 15 14.4 96% 76 1013.3 0.28
18 17:56 E 9 2.41 Rain Fog/Mist OVC005 15.6 14.4 93% 76 1013.4 0.05
18 16:56 E 19 16.09 Overcast OVC017 15.6 14.4 93% 75.97 1013.2 0.03 0.1
18 15:56 E 15 11.27 Overcast OVC011 15.6 14.4 93% 76 1013.4
18 14:56 E 13 4.83 Light Rain Fog/Mist OVC005 15.6 15 96% 76.02 1013.6 0.05
18 13:56 E 9 2.41 Light Rain Fog/Mist OVC005 16.1 15.1 16.4 15.4 94% 76.07 1014.2 0.05 1.02
18 12:56 E 11 2.41 Light Rain Fog/Mist OVC005 16.4 15.8 96% 76.1 1014.5 0.05
18 11:56 E 11 3.22 Light Drizzle Fog/Mist OVC006 15.7 15.7 100% 76.07 1014.2 0.05
Date Time (edt) Wind (kph) Vis. (km) Weather Sky Cond. Air Dwpt Max. Min. Relative Humidity Wind Chill (°C) Heat Index (°C) altimeter (cm) sea level (mb) 1 hr 3 hr 6 hr
6 hour
Temperature (ºC) Pressure Precipitation (cm)